[[{"header":{"parameterUnit":"m.s-1","parameterCategory":1,"la1":30.2991,"la2":30.254,"lo1":-89.0895,"lo2":-89.0444,"dy":0.0017,"dx":0.0017,"nx":28,"ny":28,"refTime":"2024-06-12T21:00:00:Z","depth":0,"parameterNumber":2,"parameterNumberName":"U-component_of_WINDS"},"data":[0,0,0,0,0,0,0,0,0,0,0,0,0,0,0,0,0,0,0,0,0,0,0,0,0,0,0,0,0,0,0,0,0,0,0,0,0,0,0,0,0,0,0,0,0,0,0,0,0,0,0,0,0,0,0,0,0,0,-2.2234,-2.2233,0,-2.2163,-2.2162,-2.2161,-2.2097,-2.2097,-2.2096,-2.2095,-2.202,-2.2019,-2.2017,0,0,0,0,0,0,0,0,0,0,0,0,0,-2.2313,-2.2312,-2.2234,-2.2233,-2.2232,-2.2163,-2.2162,-2.2161,-2.2097,-2.2096,-2.2096,-2.2095,-2.202,-2.2019,-2.2017,0,0,0,0,0,0,0,0,0,0,0,0,0,-2.2264,-2.2312,-2.2234,-2.2192,-2.2188,-2.2163,-2.2162,-2.2161,-2.2098,-2.2096,-2.2095,-2.2094,-2.2021,-2.2019,-2.2017,-2.2028,0,0,-2.2011,-2.201,0,0,0,0,0,0,0,0,-2.2267,-2.2261,-2.2199,-2.2195,-2.219,-2.2138,-2.2163,-2.2116,-2.2098,-2.2132,-2.2095,-2.2094,-2.206,-2.2055,-2.2044,-2.2024,-2.2021,-2.2011,-2.201,-2.2009,-2.2008,0,0,0,0,0,0,0,-2.2271,-2.2264,-2.2206,-2.2198,-2.2193,-2.2177,-2.2168,-2.2153,-2.2103,-2.2129,-2.2124,-2.2116,-2.2057,-2.2046,-2.2042,-2.202,-2.2011,-2.2009,-2.2008,-2.2007,-2.2007,-2.2008,0,0,0,0,0,0,-2.2281,-2.2267,-2.2208,-2.2204,-2.2227,-2.2176,-2.2167,-2.2156,-2.2103,-2.2094,-2.2118,-2.2114,-2.205,-2.2044,-2.2039,-2.2048,-2.2009,-2.2007,-2.2006,-2.2006,-2.2007,-2.2009,0,0,0,0,0,0,-2.2283,-2.2276,-2.2211,-2.2234,-2.2225,-2.2176,-2.2164,-2.2155,-2.2143,-2.2095,-2.2085,-2.2115,-2.2049,-2.2041,-2.2031,-2.2044,-2.2006,-2.2004,-2.2005,-2.2006,-2.2008,-2.2067,0,0,0,0,0,0,-2.2285,-2.2277,-2.2281,-2.2235,-2.2224,-2.2205,-2.2165,-2.2154,-2.2141,-2.2135,-2.209,-2.2081,-2.2047,-2.2035,-2.203,-2.2041,-2.2003,-2.2003,-2.2005,-2.2007,-2.2063,-2.207,-2.2076,0,0,0,0,0,-2.2288,-2.2299,-2.2281,-2.2274,-2.2227,-2.2206,-2.22,-2.2161,-2.2142,-2.2145,-2.2114,-2.2083,-2.2045,-2.2034,-2.2028,-2.2039,-2.2002,-2.2005,-2.2007,-2.2061,-2.2069,-2.2076,0,0,0,0,0,0,-2.2346,-2.2292,-2.2271,-2.2268,-2.2242,-2.2195,-2.2198,-2.2171,-2.2149,-2.2144,-2.2097,-2.2087,-2.2082,-2.206,-2.2049,-2.2048,-2.2019,-2.2021,-2.2062,-2.2069,-2.2076,-2.208,-2.2001,0,0,0,0,0,-2.2359,-2.2347,-2.23,-2.2302,-2.229,-2.2247,-2.2236,-2.2208,-2.2179,-2.2168,-2.2136,-2.2108,-2.209,-2.2079,-2.2059,-2.2061,-2.205,-2.2066,-2.2072,-2.2078,-2.2079,-2.2079,-2.2085,-2.2017,-2.2017,-2.2017,0,0,-2.2384,-2.2353,-2.2348,-2.2312,-2.2289,-2.2277,-2.2237,-2.2226,-2.2217,-2.2166,-2.2154,-2.2131,-2.2097,-2.2093,-2.209,-2.2074,-2.2096,-2.2081,-2.2086,-2.2084,-2.2082,-2.2088,-2.2094,-2.2019,-2.2019,-2.2018,0,0,-2.2424,-2.24,-2.2399,-2.2377,-2.2343,-2.2314,-2.2315,-2.2272,-2.2255,-2.2243,-2.2205,-2.2193,-2.2163,-2.2141,-2.2125,-2.2161,-2.2131,-2.2156,-2.2188,-2.2189,-2.2194,-2.2198,-2.221,-2.2215,-2.2158,-2.2158,-2.2158,0,-2.2459,-2.244,-2.2401,-2.2393,-2.2378,-2.2334,-2.2332,-2.2313,-2.2274,-2.2265,-2.2249,-2.2211,-2.2185,-2.2176,-2.2185,-2.2174,-2.2172,-2.2159,-2.2197,-2.2201,-2.2204,-2.2215,-2.222,-2.2161,-2.216,-2.216,-2.216,0,-2.2485,-2.2473,-2.2476,-2.2442,-2.2428,-2.2423,-2.2383,-2.2374,-2.2349,-2.2323,-2.2312,-2.228,-2.2254,-2.225,-2.2225,-2.2237,-2.2229,-2.2206,-2.2176,-2.2214,-2.2224,-2.2228,-2.2165,-2.2164,-2.2163,-2.2162,0,0,-2.2557,-2.2503,-2.2504,-2.2488,-2.2449,-2.2439,-2.2433,-2.2408,-2.2401,-2.2377,-2.237,-2.2347,-2.2326,-2.2309,-2.2281,-2.2282,-2.2312,-2.2258,-2.2257,-2.2268,-2.2324,-2.2341,-2.2346,-2.2293,-2.2294,-2.2294,-2.2327,0,-2.2589,-2.2576,-2.2542,-2.2538,-2.2527,-2.2486,-2.248,-2.2456,-2.2432,-2.2418,-2.2392,-2.2376,-2.2349,-2.2339,-2.2338,-2.2308,-2.2322,-2.2306,-2.2286,-2.2285,-2.2294,-2.2351,-2.2369,-2.24,-2.233,-2.2331,-2.2331,0,-2.2624,-2.2604,-2.26,-2.2563,-2.2557,-2.2553,-2.2529,-2.2517,-2.2488,-2.2471,-2.2454,-2.2424,-2.2415,-2.239,-2.2377,-2.2367,-2.2357,-2.2342,-2.2343,-2.2337,-2.2309,-2.2347,-2.2409,-2.2414,-2.2337,-2.2336,-2.2336,0,-2.2676,-2.2648,-2.2642,-2.263,-2.2587,-2.2585,-2.2567,-2.2538,-2.2526,-2.2505,-2.2497,-2.2475,-2.2463,-2.2447,-2.2412,-2.2397,-2.2403,-2.2375,-2.2388,-2.2389,-2.2389,-2.2389,-2.245,-2.2386,-2.2386,-2.2386,-2.2386,0,-2.2715,-2.2714,-2.2665,-2.2661,-2.2659,-2.2621,-2.262,-2.2598,-2.2573,-2.2564,-2.2528,-2.2521,-2.2476,-2.2464,-2.2437,-2.243,-2.2425,-2.2411,-2.2403,-2.2413,-2.2415,-2.2404,-2.2401,-2.2387,-2.2387,-2.2386,-2.2386,0,-2.2771,-2.2739,-2.2729,-2.269,-2.268,-2.2681,-2.2647,-2.2642,-2.2617,-2.2607,-2.2602,-2.2562,-2.2546,-2.2511,-2.2484,-2.2466,-2.2467,-2.2454,-2.2476,-2.2471,-2.2486,-2.2485,-2.2541,-2.2546,-2.248,-2.2481,-2.2482,0,-2.2797,-2.2796,-2.2757,-2.2749,-2.2733,-2.2721,-2.2709,-2.2672,-2.2661,-2.263,-2.2629,-2.2611,-2.2593,-2.2569,-2.2538,-2.2518,-2.2504,-2.2525,-2.25,-2.2511,-2.2503,-2.2503,-2.2503,-2.253,-2.2531,-2.2532,-2.2532,0,-2.2847,-2.2832,-2.2816,-2.2796,-2.2784,-2.2766,-2.2746,-2.2741,-2.27,-2.2689,-2.2673,-2.266,-2.2635,-2.2616,-2.2592,-2.2573,-2.2546,-2.2541,-2.2543,-2.2552,-2.2564,-2.2557,-2.249,-2.2539,-2.2538,-2.2538,-2.2537,-2.2537,-2.2888,-2.2886,-2.2858,-2.2843,-2.2825,-2.2807,-2.2801,-2.2776,-2.2762,-2.2739,-2.2718,-2.2704,-2.2677,-2.2643,-2.2626,-2.2614,-2.26,-2.2603,-2.2603,-2.2604,-2.2608,-2.2568,-2.261,-2.2609,-2.2609,-2.2609,-2.2609,0,-2.2936,-2.2917,-2.2903,-2.2877,-2.2866,-2.2843,-2.282,-2.2812,-2.28,-2.2778,-2.2763,-2.2744,-2.2727,-2.2696,-2.2676,-2.2673,-2.266,-2.2669,-2.2667,-2.2664,-2.2622,-2.2622,-2.2679,-2.2679,-2.2679,-2.2679,-2.2679,-2.2679,-2.2959,-2.2953,-2.2935,-2.292,-2.2901,-2.2887,-2.2876,-2.286,-2.2843,-2.2824,-2.281,-2.2791,-2.2765,-2.2743,-2.2727,-2.2718,-2.2712,-2.2725,-2.2712,-2.2673,-2.2666,-2.266,-2.266,-2.2724,-2.2724,-2.2754,-2.2754,-2.2755]},{"header":{"parameterUnit":"m.s-1","parameterCategory":1,"la1":30.2991,"la2":30.254,"lo1":-89.0895,"lo2":-89.0444,"dy":0.0017,"dx":0.0017,"nx":28,"ny":28,"refTime":"2024-06-12T21:00:00:Z","depth":0,"parameterNumber":3,"parameterNumberName":"V-component_of_WINDS"},"data":[0,0,0,0,0,0,0,0,0,0,0,0,0,0,0,0,0,0,0,0,0,0,0,0,0,0,0,0,0,0,0,0,0,0,0,0,0,0,0,0,0,0,0,0,0,0,0,0,0,0,0,0,0,0,0,0,0,0,3.7988,3.7989,0,3.8016,3.8016,3.8016,3.8079,3.808,3.8081,3.8083,3.8103,3.8103,3.8102,0,0,0,0,0,0,0,0,0,0,0,0,0,3.7986,3.7985,3.7988,3.7989,3.7989,3.8016,3.8016,3.8016,3.8079,3.808,3.8082,3.8083,3.8104,3.8103,3.8102,0,0,0,0,0,0,0,0,0,0,0,0,0,3.7997,3.7985,3.7988,3.8024,3.8027,3.8015,3.8016,3.8016,3.8078,3.808,3.8082,3.8084,3.8104,3.8103,3.8102,3.8056,0,0,3.8099,3.8098,0,0,0,0,0,0,0,0,3.7996,3.7997,3.8018,3.8021,3.8025,3.8046,3.8023,3.8029,3.8078,3.8058,3.8083,3.8085,3.8082,3.8083,3.8084,3.8057,3.8058,3.8099,3.8098,3.8098,3.8097,0,0,0,0,0,0,0,3.7995,3.7996,3.7999,3.8018,3.8022,3.8036,3.804,3.8024,3.8059,3.806,3.8065,3.8068,3.8084,3.8084,3.8085,3.8058,3.8099,3.8098,3.8097,3.8097,3.7997,3.7995,0,0,0,0,0,0,3.799,3.7995,3.7998,3.8,3.8015,3.8035,3.8039,3.8037,3.8059,3.8065,3.8066,3.8071,3.8085,3.8086,3.8086,3.8034,3.8098,3.8097,3.8096,3.7999,3.7996,3.7994,0,0,0,0,0,0,3.799,3.799,3.7997,3.7999,3.8001,3.8033,3.803,3.8037,3.8037,3.8064,3.8069,3.806,3.8087,3.8087,3.8064,3.8035,3.8096,3.8095,3.8001,3.7998,3.7995,3.7929,0,0,0,0,0,0,3.799,3.7989,3.7973,3.7998,3.8,3.7976,3.8028,3.8036,3.8036,3.8042,3.8059,3.8064,3.8088,3.8065,3.8063,3.8035,3.8095,3.8004,3.8,3.7996,3.7934,3.7924,3.7916,0,0,0,0,0,3.7989,3.7952,3.7972,3.7972,3.7981,3.7974,3.7975,3.8006,3.8033,3.8017,3.8034,3.8064,3.8039,3.8062,3.806,3.8031,3.8006,3.8001,3.7996,3.7938,3.7926,3.7916,0,0,0,0,0,0,3.792,3.7956,3.7978,3.7949,3.7958,3.7985,3.7965,3.7992,3.7992,3.7998,3.8034,3.8037,3.8009,3.8018,3.8043,3.7989,3.8027,3.8022,3.7984,3.7973,3.7964,3.7961,3.8094,0,0,0,0,0,3.7902,3.7895,3.7926,3.7896,3.79,3.7932,3.793,3.7953,3.7963,3.7967,3.7983,3.799,3.7984,3.7979,3.7975,3.7937,3.7941,3.7916,3.7907,3.79,3.7894,3.7874,3.7863,3.7979,3.7979,3.7979,0,0,3.7863,3.7882,3.7874,3.7883,3.7893,3.7884,3.7934,3.7922,3.7915,3.7964,3.7944,3.7956,3.7966,3.7935,3.7922,3.7942,3.7864,3.7894,3.7887,3.7886,3.7868,3.7857,3.7848,3.7976,3.7976,3.7977,0,0,3.7787,3.7801,3.7778,3.7789,3.7805,3.7826,3.7821,3.7844,3.7855,3.7836,3.7873,3.7864,3.7853,3.786,3.7861,3.7791,3.7818,3.7789,3.774,3.7721,3.7712,3.7704,3.7678,3.7668,3.7783,3.7783,3.7783,0,3.7736,3.7725,3.7762,3.7749,3.7751,3.7799,3.7775,3.7783,3.7795,3.7795,3.7818,3.7807,3.7817,3.7788,3.7772,3.7772,3.7765,3.7785,3.771,3.7703,3.7696,3.7671,3.7662,3.7779,3.778,3.778,3.7781,0,3.7661,3.7653,3.7633,3.7647,3.7647,3.7628,3.7662,3.7657,3.7681,3.77,3.768,3.7695,3.7695,3.769,3.7712,3.7665,3.7676,3.7704,3.7743,3.7681,3.7658,3.7649,3.7774,3.7775,3.7776,3.7777,0,0,3.7539,3.7577,3.7569,3.7576,3.7599,3.7593,3.7576,3.7579,3.7574,3.7582,3.7568,3.7559,3.7586,3.7588,3.7611,3.7595,3.7537,3.7625,3.7625,3.7607,3.7485,3.7463,3.7452,3.7557,3.7555,3.7554,3.7484,0,3.7467,3.7443,3.7477,3.7444,3.7437,3.7484,3.747,3.7481,3.7499,3.7494,3.7513,3.7506,3.7542,3.7544,3.7529,3.7547,3.7513,3.7553,3.7542,3.7541,3.7536,3.744,3.7417,3.735,3.7476,3.7474,3.7473,0,3.7379,3.7386,3.7353,3.738,3.7378,3.7365,3.7371,3.7367,3.738,3.7394,3.7398,3.7428,3.7412,3.7452,3.743,3.7456,3.7454,3.7462,3.746,3.7459,3.7502,3.7435,3.733,3.7319,3.746,3.7461,3.7462,0,3.7293,3.7294,3.7275,3.728,3.731,3.73,3.7311,3.7328,3.7328,3.7333,3.7333,3.7335,3.7336,3.7336,3.7365,3.7392,3.7339,3.7381,3.7349,3.7348,3.7334,3.7334,3.7225,3.7335,3.7335,3.7335,3.7335,0,3.7208,3.7185,3.7236,3.7224,3.7201,3.7241,3.7215,3.7232,3.7246,3.7237,3.7278,3.7268,3.7307,3.7301,3.7324,3.7302,3.7302,3.7312,3.7317,3.7307,3.7306,3.7304,3.7309,3.7333,3.7333,3.7334,3.7334,0,3.7106,3.7139,3.7121,3.7153,3.7161,3.7142,3.7168,3.7157,3.7179,3.7167,3.7166,3.7199,3.7195,3.7224,3.7224,3.7239,3.7206,3.722,3.7202,3.7205,3.7171,3.7173,3.7057,3.7043,3.7162,3.7161,3.716,0,3.7049,3.7033,3.7064,3.7063,3.7073,3.7069,3.7071,3.711,3.7109,3.7125,3.7112,3.7112,3.7113,3.7103,3.7126,3.7126,3.714,3.7099,3.714,3.713,3.7138,3.7138,3.7136,3.7089,3.7088,3.7087,3.7086,0,3.6943,3.6961,3.6963,3.6971,3.6972,3.6979,3.6989,3.6985,3.7027,3.7024,3.7022,3.7023,3.7025,3.7023,3.7028,3.7039,3.7068,3.7074,3.7066,3.7054,3.7044,3.7048,3.7177,3.7075,3.7076,3.7077,3.7078,3.7078,3.6861,3.685,3.6871,3.6872,3.6884,3.6893,3.6885,3.6907,3.6906,3.6912,3.6935,3.6928,3.6944,3.6955,3.6963,3.6957,3.6976,3.6965,3.6962,3.6958,3.6952,3.7046,3.6958,3.6958,3.6958,3.6959,3.6959,0,3.6757,3.6774,3.6774,3.6789,3.6789,3.6821,3.6834,3.6831,3.6826,3.6839,3.6841,3.6838,3.6837,3.6861,3.6863,3.6854,3.6867,3.6853,3.6853,3.6855,3.6935,3.6941,3.6842,3.6842,3.6842,3.6842,3.6842,3.6842,3.6703,3.6686,3.6707,3.6696,3.6713,3.6708,3.6713,3.6721,3.6732,3.6728,3.6728,3.6745,3.6763,3.6767,3.6767,3.6774,3.6772,3.6752,3.6764,3.6838,3.6849,3.686,3.6866,3.6752,3.6752,3.6684,3.6684,3.6683]}]]